DELTA 1 DEB

Satellite information

Favourite Embed

Satellite Type and Status

DEBRISIN ORBIT

Key statistics

Satellite DELTA 1 DEB at a glance.

Uptime

18872

Days in orbit

Revolutions

≈ 12.4

Per day

Orbit

SSO

Sun Synchronous Orbit

Inclination

101.9

Latest

Satellite identification and parameters

Extended collection of information and parameters for DELTA 1 DEB.

Object identification

Identified? True

Debris? True

Object name: DELTA 1 DEB

International designator: 1973-086T

Object number (NORAD): 7027

Object ID (CCSDS): 7027

Country: UNITED STATES OF AMERICA (US)

Current information (Y/N): Y

RCS size: SMALL

Orbital parameters

Period: 116.581 minutes

Inclination: 101.9216 deg

SMA: 7905.199 km

Apoapsis: 1574.488 km

Periapsis: 1479.639 km

RAAN: 85.7964 deg

Eccentricy: 0.0059992

Argument of periapsis: 325.15 deg

Mean anomaly: 109.7562 deg

Mean motion: 12.35189486 rev/day

Mean motion (dot): 0.00000114 rev/day2

B* drag term: 0.0012496 1/REarth

Two-line elements (TLE)

Creation date: July 7, 2025, 6:34 p.m.

Reference frame: TEME

Reference center: EARTH

Epoch: July 7, 2025, 1:44 p.m. UTC

TLE line 0: 0 DELTA 1 DEB

TLE line 1: 1 07027U 73086T 25188.57253168 .00000114 00000-0 12496-2 0 9991

TLE line 2: 2 07027 101.9216 85.7964 0059992 325.1500 109.7562 12.35189486321493

Live tracking on map

Real-time ground track for satellite DELTA 1 DEB.

In-orbit conjunctions

A list of the most updated potential collisions computed for object DELTA 1 DEB.

Target Orbit TCA Probability of collision Miss distance Type
COSMOS 717 LEO 2024-05-31 22:39:48 0.0001377369 574.0 (m) PAYLOAD

Associated space launch

Meteorological satellite using radiometric imaging

DELTA 1 DEB was lifted into orbit during the mission ‘Delta 0300 | NOAA 3’, on board a Delta 0300 space rocket.

The launch took place on Nov. 6, 1973, 5:02 p.m. from Space Launch Complex 2W.

For more information about the launch, click the button.

Launch to space Delta 0300 | NOAA 3
Delta 0300 | NOAA 3

Agency: N/A

Status: Launch Successful

Launch date: Nov. 6, 1973, 5:02 p.m. UTC

Rocket: Delta 0300

Launch pad: Space Launch Complex 2W

Location: Vandenberg SFB, CA, USA

...

Latest news about this satellite

There are no fresh news available about this satellite. Check back as we update our databases every day.


Newsletter sign-up

Weekly statistics, charts and insights to help you stay on top of the space industry.